Location: Campillo
(40.8621°N, 4.2488°W)
Time: 21:27:57
(UTC+00:00)

Cosmos 1633 Rocket - Pass Details

Date: 22 September 2021
Orbit: 607 x 623 km, 82.5° (Epoch: 23 October)

Event Time Altitude Azimuth Distance (km) Brightness Sun altitude
Rises 04:32:31 0° 343° (NNW) 2,913 6.5 -18.0°
Reaches altitude 10° 04:34:52 10° 335° (NNW) 2,001 5.6 -17.6°
Maximum altitude 04:38:55 36° 269° (W) 988 3.6 -16.8°
Enters shadow 04:40:32 27° 227° (SW) 1,202 4.0 -16.5°
